APSTAR-9

Last updated on Sun Oct 06 2024 00:02:40 GMT+0000 (Coordinated Universal Time)

1 40982U 15059A 24279.56912927 -.00000255 00000+0 00000+0 0 9999 2 40982 0.0086 145.3766 0002543 29.8362 186.4398 1.00271365 32903
UTC large
Height (km)
Speed (km/s)
/
Latitude / Longitude
Inclination (degrees)
Orbital Period (minutes)
Azimuth
Elevation
Range (km)
Doppler Factor

Next 0 passes for location: London (51.5072 / 0.1276)

Sorry there are no passes over London.